Volver al catálogo

CZ-6A DEB

ActivoPO
NORAD 55207·DEBRIS·🇨🇳 China

Lanzado Nov 11, 2022 desde Taiyuan Satellite Launch Center

Loading…

Próximos Pases (próximas 24 horas)

TLE

ActualizadoSource: Space-Track

Época: Sep 13, 2026, 16:28 UTC

1 55207U 22151VY  26256.68622197  .00011726  00000-0  13361-2 0  9995
2 55207  98.6332 340.5470 0055585 331.9189  27.9027 14.85213167198842

Sigue CZ-6A DEB en tiempo real con AllMySat

Download on the App Store